Zurück zum Katalog

FENGYUN 1C DEB

AktivSSO
NORAD 30709·DEBRIS·🇨🇳 China

Gestartet May 10, 1999 von Taiyuan Satellite Launch Center

Loading…

Nächste Überflüge (nächste 24 Stunden)

TLE

AktuellSource: Space-Track

Epoche: Sep 14, 2026, 09:35 UTC

1 30709U 99025ART 26257.39992107  .00002218  00000-0  10384-2 0  9997
2 30709  99.1586 249.1649 0079151 206.4041 153.3090 14.19681146999058

Verfolge FENGYUN 1C DEB in Echtzeit mit AllMySat

Download on the App Store